Precipitable_Water
0.94 0.94 0.95 0.94 0.93 0.92 0.95 0.98 0.99 1.00 0.97 0.98 0.96 0.92 0.93 0.94 0.91 0.87 0.84 0.80 0.78 0.75 0.72 0.68 0.63 0.56 0.50 0.42 0.38 0.36 0.32 0.31 0.30 0.31 0.30 0.30 0.30 0.29 0.28 0.27 0.26 0.25 0.25 0.23 0.23 0.23 0.22 0.24 0.23 0.24 0.26 0.21 0.18 0.19 0.20 0.20 0.19 0.18 0.19 0.19 0.19 0.20 0.20 0.20 0.19 0.17 0.19 0.24 0.25 0.26 0.29 0.31 0.31 0.32 0.32 0.33 0.34 0.34 0.35 0.35 0.35 0.36 0.37 0.37 0.37
0.92 0.94 0.91 0.92 0.91 0.90 0.93 1.03 1.04 1.04 1.01 1.01 0.97 0.96 0.96 0.93 0.91 0.87 0.82 0.80 0.77 0.73 0.70 0.66 0.60 0.53 0.46 0.41 0.37 0.34 0.32 0.30 0.31 0.30 0.29 0.29 0.30 0.29 0.30 0.26 0.27 0.25 0.24 0.22 0.21 0.23 0.22 0.23 0.23 0.24 0.26 0.21 0.17 0.17 0.19 0.19 0.18 0.19 0.18 0.18 0.18 0.18 0.20 0.19 0.19 0.18 0.18 0.22 0.24 0.27 0.29 0.32 0.30 0.33 0.32 0.32 0.33 0.36 0.35 0.35 0.37 0.38 0.37 0.37 0.38
0.92 0.92 0.91 0.91 0.91 0.95 1.02 1.05 1.07 1.05 1.02 1.06 0.99 0.97 0.95 0.93 0.91 0.85 0.82 0.78 0.75 0.72 0.67 0.62 0.56 0.50 0.45 0.39 0.35 0.34 0.33 0.32 0.30 0.30 0.28 0.29 0.28 0.28 0.29 0.27 0.26 0.25 0.23 0.23 0.21 0.22 0.22 0.23 0.23 0.24 0.24 0.19 0.17 0.17 0.18 0.18 0.19 0.17 0.16 0.17 0.18 0.19 0.19 0.20 0.20 0.19 0.19 0.20 0.25 0.26 0.29 0.31 0.31 0.31 0.33 0.34 0.34 0.34 0.34 0.35 0.36 0.37 0.39 0.39 0.40
0.91 0.92 0.92 0.93 0.94 0.98 1.03 1.08 1.09 1.06 1.01 1.08 1.00 0.95 0.93 0.91 0.89 0.86 0.82 0.79 0.73 0.69 0.65 0.60 0.54 0.47 0.41 0.36 0.34 0.32 0.32 0.33 0.32 0.31 0.28 0.29 0.28 0.27 0.27 0.26 0.27 0.24 0.24 0.23 0.23 0.22 0.22 0.22 0.22 0.25 0.24 0.19 0.17 0.16 0.18 0.18 0.18 0.17 0.16 0.16 0.17 0.17 0.18 0.20 0.21 0.21 0.21 0.20 0.23 0.26 0.28 0.29 0.30 0.32 0.33 0.34 0.34 0.34 0.35 0.36 0.37 0.37 0.38 0.40 0.41
0.91 0.91 0.92 0.93 0.93 0.97 1.02 1.06 1.10 1.12 1.06 1.04 0.97 0.93 0.90 0.87 0.86 0.84 0.81 0.76 0.72 0.66 0.60 0.57 0.50 0.45 0.40 0.37 0.35 0.35 0.34 0.33 0.33 0.32 0.31 0.30 0.30 0.28 0.26 0.25 0.26 0.24 0.24 0.24 0.25 0.23 0.22 0.22 0.22 0.26 0.25 0.21 0.19 0.19 0.18 0.18 0.19 0.17 0.15 0.15 0.15 0.16 0.18 0.20 0.21 0.22 0.22 0.21 0.22 0.26 0.28 0.29 0.30 0.32 0.33 0.32 0.32 0.33 0.34 0.34 0.36 0.38 0.40 0.43 0.44
0.90 0.90 0.91 0.90 0.92 0.94 1.00 1.05 1.07 1.09 1.04 0.99 0.95 0.91 0.87 0.84 0.83 0.82 0.80 0.74 0.69 0.63 0.58 0.52 0.47 0.43 0.40 0.36 0.36 0.33 0.30 0.29 0.30 0.32 0.34 0.32 0.30 0.28 0.28 0.25 0.25 0.25 0.24 0.24 0.24 0.24 0.23 0.22 0.22 0.26 0.26 0.23 0.22 0.22 0.20 0.19 0.19 0.16 0.14 0.13 0.14 0.15 0.17 0.19 0.21 0.21 0.21 0.22 0.22 0.22 0.25 0.27 0.28 0.30 0.32 0.32 0.31 0.31 0.32 0.35 0.38 0.41 0.42 0.42 0.43
0.91 0.89 0.89 0.90 0.91 0.95 0.99 1.05 1.08 1.06 1.01 0.96 0.93 0.89 0.85 0.83 0.81 0.79 0.79 0.72 0.65 0.59 0.53 0.48 0.45 0.41 0.37 0.36 0.31 0.28 0.25 0.24 0.24 0.25 0.27 0.31 0.31 0.29 0.26 0.26 0.24 0.26 0.25 0.24 0.24 0.25 0.23 0.22 0.23 0.27 0.26 0.25 0.24 0.23 0.22 0.20 0.19 0.14 0.12 0.12 0.13 0.15 0.16 0.18 0.19 0.20 0.20 0.21 0.22 0.23 0.24 0.27 0.28 0.27 0.30 0.32 0.32 0.32 0.31 0.33 0.34 0.40 0.42 0.41 0.40
0.91 0.90 0.90 0.89 0.90 0.94 0.97 1.03 1.18 1.17 1.02 0.96 0.91 0.87 0.84 0.80 0.79 0.79 0.76 0.69 0.62 0.56 0.51 0.47 0.44 0.41 0.38 0.34 0.30 0.27 0.23 0.20 0.19 0.20 0.22 0.23 0.26 0.30 0.28 0.26 0.25 0.25 0.25 0.24 0.24 0.24 0.23 0.22 0.23 0.26 0.26 0.27 0.26 0.23 0.21 0.20 0.17 0.12 0.12 0.12 0.13 0.15 0.17 0.18 0.19 0.19 0.19 0.19 0.20 0.22 0.25 0.26 0.28 0.29 0.31 0.31 0.28 0.29 0.32 0.33 0.33 0.36 0.38 0.42 0.44
0.91 0.91 0.90 0.89 0.90 0.93 0.94 1.14 1.21 1.07 0.98 0.94 0.89 0.85 0.82 0.80 0.79 0.78 0.73 0.66 0.59 0.54 0.50 0.46 0.43 0.40 0.38 0.34 0.30 0.25 0.21 0.20 0.20 0.19 0.19 0.19 0.23 0.25 0.30 0.28 0.25 0.25 0.25 0.23 0.23 0.24 0.23 0.23 0.23 0.25 0.26 0.28 0.25 0.23 0.22 0.19 0.14 0.11 0.11 0.12 0.13 0.16 0.17 0.19 0.19 0.20 0.19 0.19 0.19 0.23 0.24 0.25 0.27 0.27 0.27 0.27 0.26 0.27 0.31 0.34 0.34 0.38 0.40 0.41 0.44
0.92 0.92 0.91 0.91 0.93 0.94 1.01 1.02 1.01 1.00 0.96 0.90 0.86 0.84 0.81 0.79 0.78 0.74 0.68 0.61 0.56 0.52 0.48 0.45 0.41 0.38 0.37 0.33 0.29 0.25 0.22 0.21 0.20 0.19 0.19 0.19 0.19 0.23 0.27 0.30 0.27 0.26 0.25 0.23 0.23 0.24 0.23 0.22 0.22 0.23 0.26 0.26 0.22 0.22 0.20 0.15 0.11 0.11 0.11 0.12 0.14 0.16 0.17 0.19 0.19 0.19 0.17 0.17 0.18 0.21 0.22 0.24 0.25 0.26 0.26 0.26 0.28 0.30 0.31 0.32 0.33 0.37 0.40 0.41 0.44
0.92 0.92 0.91 0.93 0.93 0.99 1.05 1.03 0.99 0.93 0.88 0.85 0.84 0.81 0.79 0.78 0.75 0.70 0.64 0.58 0.54 0.50 0.46 0.43 0.41 0.40 0.37 0.32 0.27 0.24 0.22 0.21 0.20 0.19 0.19 0.19 0.20 0.22 0.25 0.28 0.28 0.28 0.27 0.24 0.22 0.23 0.23 0.22 0.21 0.21 0.25 0.23 0.20 0.21 0.17 0.12 0.10 0.10 0.10 0.12 0.15 0.18 0.18 0.18 0.18 0.18 0.17 0.17 0.19 0.21 0.22 0.23 0.25 0.27 0.27 0.28 0.29 0.30 0.30 0.32 0.34 0.36 0.37 0.36 0.35
0.92 0.93 0.93 0.94 0.95 1.08 1.08 0.99 0.92 0.88 0.86 0.84 0.82 0.79 0.77 0.75 0.70 0.65 0.60 0.55 0.52 0.49 0.45 0.42 0.40 0.38 0.36 0.32 0.27 0.22 0.20 0.20 0.20 0.19 0.19 0.19 0.20 0.21 0.25 0.28 0.30 0.29 0.28 0.26 0.25 0.24 0.24 0.23 0.21 0.19 0.22 0.21 0.21 0.19 0.15 0.11 0.10 0.09 0.10 0.12 0.15 0.17 0.20 0.19 0.17 0.17 0.17 0.16 0.18 0.21 0.23 0.25 0.26 0.28 0.29 0.29 0.29 0.30 0.31 0.31 0.33 0.34 0.35 0.35 0.38
0.94 0.94 0.97 0.97 1.02 1.07 1.00 0.94 0.91 0.88 0.87 0.85 0.82 0.78 0.75 0.71 0.66 0.61 0.56 0.55 0.52 0.46 0.42 0.39 0.37 0.37 0.36 0.33 0.29 0.25 0.20 0.19 0.20 0.19 0.20 0.19 0.20 0.22 0.24 0.28 0.31 0.31 0.29 0.28 0.27 0.26 0.26 0.25 0.22 0.20 0.21 0.22 0.22 0.19 0.14 0.10 0.09 0.09 0.10 0.13 0.15 0.16 0.17 0.18 0.19 0.17 0.15 0.15 0.19 0.23 0.26 0.27 0.28 0.30 0.31 0.31 0.32 0.30 0.31 0.30 0.31 0.33 0.36 0.37 0.40
0.95 0.96 1.03 1.06 1.11 1.04 0.97 0.92 0.88 0.88 0.87 0.83 0.81 0.76 0.71 0.67 0.63 0.59 0.57 0.54 0.49 0.44 0.40 0.38 0.37 0.36 0.37 0.35 0.31 0.26 0.21 0.20 0.20 0.20 0.20 0.20 0.21 0.25 0.29 0.31 0.33 0.34 0.34 0.30 0.28 0.27 0.27 0.27 0.25 0.22 0.22 0.22 0.22 0.18 0.13 0.10 0.09 0.09 0.10 0.13 0.13 0.14 0.16 0.17 0.15 0.13 0.15 0.20 0.24 0.26 0.28 0.31 0.31 0.32 0.34 0.34 0.32 0.31 0.31 0.30 0.33 0.34 0.35 0.37 0.43
0.95 0.97 1.02 1.07 1.05 0.98 0.94 0.89 0.87 0.86 0.84 0.82 0.80 0.75 0.69 0.64 0.60 0.57 0.55 0.52 0.48 0.41 0.38 0.36 0.36 0.36 0.36 0.34 0.30 0.25 0.21 0.20 0.20 0.20 0.21 0.21 0.21 0.25 0.31 0.35 0.37 0.38 0.35 0.31 0.30 0.29 0.29 0.29 0.27 0.24 0.22 0.22 0.22 0.17 0.12 0.10 0.09 0.09 0.11 0.12 0.13 0.14 0.16 0.15 0.12 0.13 0.16 0.21 0.25 0.28 0.30 0.33 0.34 0.35 0.36 0.36 0.34 0.34 0.34 0.34 0.36 0.38 0.39 0.41 0.45
0.94 0.97 1.03 1.05 0.99 0.95 0.90 0.87 0.85 0.83 0.82 0.81 0.78 0.73 0.67 0.61 0.57 0.56 0.55 0.52 0.46 0.41 0.39 0.37 0.34 0.33 0.36 0.35 0.31 0.26 0.20 0.20 0.21 0.21 0.21 0.22 0.22 0.27 0.33 0.36 0.39 0.38 0.32 0.30 0.30 0.30 0.29 0.30 0.28 0.25 0.22 0.22 0.19 0.14 0.12 0.11 0.10 0.10 0.11 0.12 0.13 0.14 0.15 0.13 0.12 0.14 0.17 0.21 0.25 0.28 0.31 0.34 0.36 0.37 0.37 0.37 0.36 0.36 0.37 0.39 0.40 0.40 0.37 0.37 0.40
0.95 0.99 1.04 1.01 0.94 0.90 0.87 0.85 0.83 0.82 0.81 0.79 0.75 0.71 0.65 0.58 0.56 0.56 0.53 0.49 0.43 0.40 0.38 0.35 0.33 0.34 0.35 0.36 0.33 0.30 0.25 0.21 0.21 0.21 0.22 0.22 0.23 0.29 0.35 0.36 0.37 0.30 0.28 0.29 0.30 0.30 0.29 0.29 0.27 0.23 0.21 0.19 0.16 0.12 0.11 0.11 0.10 0.11 0.11 0.12 0.13 0.14 0.13 0.12 0.12 0.13 0.16 0.20 0.25 0.29 0.31 0.32 0.34 0.36 0.37 0.37 0.36 0.38 0.38 0.37 0.35 0.36 0.34 0.34 0.38
0.96 1.02 1.01 0.98 0.92 0.88 0.86 0.85 0.82 0.81 0.80 0.77 0.74 0.70 0.64 0.58 0.56 0.56 0.52 0.48 0.42 0.39 0.36 0.35 0.34 0.34 0.34 0.36 0.39 0.33 0.30 0.23 0.21 0.21 0.22 0.23 0.24 0.28 0.33 0.35 0.33 0.28 0.26 0.30 0.31 0.30 0.31 0.27 0.25 0.22 0.19 0.17 0.14 0.12 0.11 0.12 0.11 0.12 0.12 0.12 0.13 0.12 0.11 0.12 0.12 0.12 0.15 0.20 0.25 0.27 0.28 0.30 0.33 0.34 0.36 0.36 0.36 0.39 0.38 0.33 0.35 0.35 0.34 0.36 0.36
0.97 1.01 0.99 0.97 0.91 0.88 0.85 0.84 0.83 0.81 0.79 0.77 0.74 0.68 0.60 0.56 0.56 0.56 0.53 0.46 0.40 0.38 0.36 0.35 0.34 0.34 0.34 0.35 0.40 0.35 0.31 0.28 0.24 0.22 0.23 0.23 0.24 0.27 0.31 0.33 0.29 0.26 0.25 0.29 0.31 0.29 0.30 0.27 0.23 0.21 0.19 0.15 0.13 0.13 0.12 0.13 0.13 0.13 0.14 0.14 0.13 0.12 0.11 0.12 0.12 0.12 0.13 0.17 0.21 0.23 0.25 0.28 0.31 0.33 0.34 0.35 0.35 0.38 0.38 0.36 0.37 0.36 0.35 0.37 0.39
1.03 1.04 1.00 0.95 0.90 0.87 0.86 0.83 0.82 0.81 0.79 0.77 0.74 0.67 0.59 0.56 0.55 0.53 0.49 0.44 0.39 0.37 0.36 0.36 0.34 0.34 0.33 0.30 0.26 0.35 0.32 0.31 0.28 0.25 0.23 0.24 0.24 0.26 0.31 0.31 0.26 0.24 0.26 0.28 0.31 0.27 0.27 0.27 0.24 0.21 0.18 0.14 0.13 0.14 0.14 0.15 0.15 0.15 0.15 0.14 0.13 0.11 0.13 0.13 0.13 0.14 0.15 0.15 0.17 0.21 0.23 0.26 0.29 0.31 0.32 0.33 0.34 0.35 0.37 0.38 0.39 0.39 0.37 0.38 0.41
1.00 0.99 0.96 0.91 0.87 0.86 0.86 0.84 0.82 0.82 0.81 0.77 0.73 0.64 0.58 0.55 0.54 0.52 0.46 0.42 0.37 0.37 0.36 0.37 0.36 0.35 0.32 0.27 0.25 0.34 0.37 0.33 0.32 0.28 0.25 0.24 0.24 0.25 0.29 0.30 0.26 0.24 0.26 0.30 0.30 0.25 0.22 0.22 0.23 0.20 0.16 0.13 0.15 0.16 0.16 0.16 0.17 0.17 0.16 0.15 0.14 0.14 0.15 0.14 0.14 0.15 0.14 0.13 0.15 0.18 0.21 0.24 0.26 0.27 0.29 0.30 0.31 0.33 0.35 0.38 0.39 0.40 0.39 0.40 0.41
0.97 0.94 0.89 0.86 0.85 0.85 0.84 0.84 0.83 0.82 0.80 0.77 0.69 0.59 0.56 0.56 0.53 0.50 0.43 0.39 0.37 0.37 0.37 0.37 0.36 0.35 0.33 0.33 0.34 0.34 0.37 0.35 0.32 0.30 0.26 0.25 0.25 0.26 0.27 0.28 0.26 0.25 0.26 0.28 0.30 0.26 0.22 0.21 0.19 0.18 0.16 0.16 0.17 0.17 0.18 0.18 0.18 0.17 0.16 0.16 0.16 0.15 0.15 0.16 0.16 0.14 0.12 0.12 0.13 0.15 0.19 0.21 0.23 0.24 0.26 0.27 0.29 0.32 0.34 0.36 0.39 0.39 0.41 0.44 0.44
0.90 0.87 0.84 0.82 0.82 0.82 0.83 0.83 0.81 0.81 0.78 0.73 0.63 0.55 0.55 0.54 0.52 0.48 0.42 0.39 0.38 0.37 0.35 0.33 0.33 0.32 0.32 0.32 0.36 0.36 0.33 0.35 0.32 0.29 0.27 0.26 0.26 0.27 0.27 0.27 0.28 0.28 0.28 0.27 0.28 0.27 0.24 0.22 0.20 0.18 0.17 0.18 0.18 0.18 0.19 0.19 0.19 0.18 0.17 0.17 0.16 0.16 0.16 0.16 0.15 0.12 0.11 0.11 0.11 0.14 0.17 0.19 0.21 0.22 0.24 0.25 0.27 0.31 0.33 0.35 0.37 0.39 0.41 0.45 0.47
0.84 0.82 0.80 0.80 0.80 0.81 0.82 0.81 0.81 0.79 0.74 0.66 0.58 0.54 0.54 0.53 0.50 0.45 0.42 0.39 0.38 0.35 0.33 0.31 0.31 0.31 0.31 0.30 0.34 0.36 0.33 0.33 0.33 0.30 0.28 0.26 0.27 0.28 0.30 0.30 0.30 0.30 0.30 0.27 0.28 0.28 0.24 0.21 0.19 0.18 0.19 0.19 0.19 0.19 0.19 0.19 0.19 0.19 0.18 0.17 0.17 0.17 0.17 0.14 0.12 0.12 0.12 0.10 0.11 0.13 0.15 0.18 0.20 0.22 0.23 0.25 0.27 0.30 0.33 0.35 0.37 0.39 0.41 0.43 0.47
0.79 0.77 0.77 0.78 0.79 0.80 0.80 0.79 0.77 0.73 0.67 0.59 0.54 0.54 0.52 0.52 0.47 0.46 0.42 0.39 0.37 0.34 0.31 0.30 0.30 0.31 0.31 0.31 0.33 0.35 0.37 0.36 0.34 0.35 0.32 0.29 0.30 0.32 0.35 0.36 0.35 0.33 0.31 0.31 0.30 0.28 0.25 0.22 0.20 0.21 0.21 0.20 0.20 0.20 0.20 0.21 0.21 0.19 0.19 0.18 0.18 0.17 0.15 0.13 0.12 0.12 0.11 0.10 0.10 0.12 0.14 0.17 0.20 0.22 0.24 0.26 0.28 0.31 0.32 0.34 0.37 0.39 0.41 0.43 0.46
0.75 0.75 0.77 0.78 0.78 0.79 0.76 0.73 0.70 0.65 0.59 0.57 0.56 0.55 0.53 0.51 0.47 0.45 0.41 0.37 0.35 0.33 0.31 0.31 0.30 0.30 0.32 0.32 0.34 0.35 0.36 0.39 0.38 0.38 0.37 0.37 0.37 0.37 0.38 0.38 0.38 0.36 0.34 0.33 0.32 0.30 0.28 0.24 0.23 0.23 0.23 0.22 0.22 0.22 0.22 0.22 0.20 0.20 0.19 0.18 0.16 0.15 0.14 0.13 0.12 0.12 0.11 0.10 0.10 0.11 0.13 0.16 0.19 0.21 0.24 0.26 0.26 0.28 0.31 0.32 0.34 0.36 0.37 0.38 0.39
0.76 0.75 0.75 0.76 0.75 0.71 0.67 0.63 0.59 0.57 0.56 0.56 0.55 0.54 0.54 0.51 0.48 0.44 0.40 0.35 0.34 0.33 0.32 0.32 0.31 0.30 0.32 0.33 0.34 0.35 0.36 0.38 0.39 0.40 0.40 0.40 0.42 0.42 0.43 0.44 0.43 0.41 0.39 0.38 0.35 0.31 0.27 0.23 0.24 0.25 0.25 0.24 0.24 0.23 0.23 0.22 0.20 0.18 0.17 0.17 0.16 0.15 0.14 0.13 0.13 0.11 0.11 0.11 0.10 0.11 0.12 0.15 0.18 0.20 0.22 0.24 0.25 0.28 0.31 0.33 0.34 0.35 0.36 0.36 0.36
0.73 0.72 0.71 0.67 0.65 0.63 0.59 0.56 0.55 0.54 0.54 0.54 0.53 0.53 0.54 0.52 0.48 0.43 0.38 0.35 0.34 0.33 0.32 0.32 0.31 0.30 0.32 0.33 0.34 0.34 0.35 0.37 0.38 0.40 0.41 0.43 0.44 0.45 0.46 0.45 0.45 0.43 0.40 0.36 0.32 0.27 0.23 0.25 0.29 0.29 0.28 0.25 0.23 0.21 0.19 0.17 0.17 0.17 0.17 0.17 0.16 0.15 0.14 0.14 0.14 0.12 0.12 0.11 0.11 0.11 0.13 0.13 0.15 0.18 0.21 0.23 0.24 0.27 0.30 0.33 0.34 0.34 0.35 0.35 0.33
0.66 0.64 0.62 0.59 0.56 0.56 0.55 0.54 0.53 0.53 0.52 0.53 0.53 0.54 0.53 0.51 0.48 0.45 0.43 0.39 0.37 0.35 0.33 0.33 0.32 0.31 0.32 0.33 0.33 0.33 0.35 0.36 0.38 0.41 0.44 0.44 0.38 0.33 0.38 0.40 0.40 0.38 0.34 0.31 0.29 0.26 0.25 0.29 0.31 0.30 0.25 0.21 0.19 0.18 0.17 0.16 0.16 0.16 0.17 0.17 0.16 0.15 0.14 0.13 0.12 0.11 0.11 0.11 0.11 0.11 0.11 0.11 0.12 0.17 0.19 0.21 0.24 0.26 0.29 0.32 0.34 0.34 0.35 0.35 0.33
0.55 0.55 0.55 0.54 0.53 0.53 0.52 0.52 0.53 0.52 0.51 0.51 0.51 0.52 0.55 0.55 0.53 0.47 0.43 0.42 0.41 0.40 0.38 0.35 0.35 0.33 0.32 0.34 0.37 0.35 0.35 0.38 0.40 0.41 0.41 0.41 0.39 0.35 0.33 0.32 0.34 0.34 0.33 0.32 0.31 0.28 0.27 0.30 0.32 0.29 0.24 0.21 0.18 0.18 0.17 0.16 0.16 0.15 0.16 0.17 0.17 0.15 0.14 0.14 0.13 0.12 0.11 0.11 0.11 0.11 0.10 0.10 0.11 0.14 0.17 0.19 0.23 0.25 0.29 0.31 0.32 0.34 0.33 0.33 0.33
0.53 0.53 0.53 0.51 0.51 0.51 0.52 0.51 0.52 0.52 0.52 0.51 0.50 0.50 0.49 0.50 0.51 0.49 0.47 0.43 0.42 0.40 0.39 0.38 0.37 0.36 0.35 0.35 0.36 0.38 0.38 0.39 0.39 0.38 0.39 0.38 0.37 0.35 0.33 0.32 0.34 0.35 0.35 0.33 0.31 0.30 0.29 0.31 0.32 0.29 0.25 0.21 0.19 0.18 0.17 0.16 0.16 0.15 0.16 0.17 0.16 0.15 0.14 0.14 0.12 0.12 0.11 0.11 0.11 0.11 0.10 0.10 0.11 0.13 0.15 0.18 0.21 0.24 0.27 0.30 0.32 0.33 0.33 0.33 0.33
0.50 0.51 0.51 0.52 0.52 0.53 0.53 0.53 0.54 0.54 0.54 0.54 0.53 0.52 0.50 0.48 0.48 0.49 0.48 0.45 0.42 0.41 0.39 0.37 0.36 0.35 0.36 0.36 0.34 0.35 0.36 0.36 0.37 0.37 0.36 0.36 0.36 0.35 0.32 0.32 0.34 0.36 0.37 0.36 0.33 0.31 0.32 0.33 0.33 0.29 0.26 0.22 0.20 0.19 0.17 0.16 0.16 0.16 0.17 0.16 0.15 0.15 0.14 0.14 0.13 0.12 0.11 0.11 0.11 0.11 0.10 0.10 0.11 0.12 0.14 0.18 0.21 0.23 0.24 0.28 0.30 0.31 0.32 0.34 0.34
0.52 0.52 0.53 0.55 0.55 0.55 0.56 0.56 0.56 0.57 0.57 0.57 0.57 0.57 0.56 0.54 0.51 0.50 0.51 0.49 0.46 0.43 0.41 0.38 0.36 0.35 0.35 0.35 0.35 0.34 0.33 0.34 0.35 0.35 0.35 0.34 0.34 0.32 0.32 0.33 0.35 0.37 0.38 0.37 0.35 0.34 0.34 0.36 0.35 0.31 0.27 0.24 0.21 0.19 0.18 0.17 0.16 0.17 0.17 0.17 0.16 0.15 0.15 0.14 0.13 0.12 0.11 0.11 0.11 0.11 0.10 0.10 0.10 0.11 0.12 0.16 0.20 0.21 0.23 0.26 0.30 0.31 0.32 0.33 0.34
0.57 0.58 0.58 0.59 0.59 0.59 0.60 0.61 0.61 0.61 0.61 0.62 0.61 0.61 0.60 0.59 0.57 0.55 0.52 0.50 0.49 0.48 0.46 0.43 0.39 0.36 0.35 0.35 0.35 0.34 0.34 0.33 0.34 0.33 0.33 0.32 0.32 0.31 0.32 0.34 0.36 0.38 0.38 0.37 0.38 0.38 0.38 0.36 0.35 0.32 0.29 0.26 0.23 0.20 0.18 0.17 0.17 0.17 0.18 0.17 0.16 0.16 0.16 0.14 0.12 0.12 0.12 0.11 0.11 0.11 0.10 0.10 0.11 0.11 0.11 0.14 0.19 0.21 0.22 0.25 0.29 0.31 0.31 0.33 0.33
0.63 0.64 0.65 0.65 0.65 0.64 0.64 0.64 0.64 0.64 0.63 0.63 0.63 0.62 0.62 0.62 0.61 0.58 0.56 0.53 0.50 0.48 0.47 0.46 0.45 0.42 0.39 0.38 0.37 0.35 0.34 0.33 0.32 0.32 0.31 0.31 0.31 0.32 0.33 0.34 0.34 0.36 0.38 0.39 0.40 0.42 0.41 0.39 0.38 0.34 0.31 0.27 0.25 0.21 0.19 0.18 0.18 0.18 0.18 0.17 0.16 0.16 0.15 0.13 0.12 0.12 0.12 0.11 0.11 0.10 0.11 0.11 0.11 0.11 0.11 0.13 0.17 0.19 0.21 0.24 0.28 0.31 0.32 0.33 0.34
0.69 0.69 0.70 0.70 0.70 0.69 0.68 0.68 0.68 0.67 0.66 0.66 0.66 0.65 0.64 0.63 0.62 0.60 0.60 0.58 0.57 0.54 0.51 0.50 0.49 0.47 0.44 0.42 0.41 0.39 0.36 0.33 0.32 0.32 0.31 0.31 0.31 0.32 0.32 0.33 0.34 0.36 0.38 0.42 0.45 0.47 0.46 0.44 0.42 0.36 0.33 0.30 0.27 0.23 0.20 0.19 0.19 0.19 0.18 0.17 0.16 0.16 0.15 0.13 0.12 0.12 0.12 0.11 0.11 0.11 0.11 0.11 0.11 0.11 0.11 0.12 0.15 0.19 0.21 0.23 0.26 0.30 0.32 0.33 0.35
0.73 0.72 0.72 0.72 0.72 0.72 0.71 0.70 0.70 0.69 0.69 0.68 0.68 0.67 0.66 0.66 0.65 0.64 0.62 0.61 0.60 0.59 0.57 0.55 0.53 0.52 0.49 0.48 0.45 0.42 0.40 0.38 0.35 0.33 0.33 0.32 0.33 0.33 0.33 0.33 0.34 0.35 0.37 0.42 0.47 0.48 0.47 0.46 0.42 0.38 0.35 0.32 0.29 0.25 0.22 0.20 0.20 0.19 0.19 0.18 0.17 0.16 0.15 0.13 0.13 0.13 0.12 0.11 0.10 0.11 0.11 0.11 0.11 0.12 0.12 0.12 0.13 0.17 0.20 0.22 0.25 0.28 0.31 0.33 0.35
0.81 0.77 0.75 0.74 0.73 0.72 0.71 0.70 0.69 0.69 0.68 0.67 0.67 0.66 0.66 0.66 0.66 0.65 0.64 0.63 0.62 0.61 0.60 0.58 0.57 0.55 0.52 0.51 0.50 0.46 0.44 0.42 0.41 0.39 0.36 0.35 0.35 0.35 0.34 0.34 0.34 0.35 0.37 0.38 0.43 0.45 0.45 0.44 0.43 0.40 0.37 0.34 0.30 0.27 0.24 0.22 0.21 0.19 0.19 0.18 0.17 0.16 0.15 0.14 0.13 0.13 0.12 0.11 0.11 0.11 0.11 0.11 0.12 0.12 0.12 0.12 0.12 0.14 0.18 0.21 0.23 0.26 0.29 0.32 0.35
0.95 0.93 0.89 0.83 0.77 0.74 0.73 0.72 0.71 0.70 0.69 0.69 0.68 0.67 0.66 0.65 0.65 0.65 0.64 0.64 0.63 0.62 0.62 0.61 0.60 0.60 0.59 0.56 0.54 0.52 0.49 0.45 0.42 0.41 0.40 0.37 0.36 0.35 0.35 0.35 0.35 0.36 0.37 0.38 0.41 0.45 0.46 0.45 0.44 0.42 0.39 0.36 0.32 0.29 0.26 0.23 0.22 0.20 0.19 0.18 0.17 0.16 0.15 0.14 0.13 0.13 0.12 0.11 0.11 0.11 0.11 0.11 0.12 0.13 0.13 0.13 0.12 0.13 0.16 0.19 0.22 0.25 0.27 0.30 0.33
1.02 1.02 1.01 0.98 0.95 0.92 0.90 0.86 0.83 0.79 0.77 0.75 0.74 0.73 0.71 0.69 0.67 0.66 0.65 0.63 0.63 0.64 0.65 0.64 0.63 0.64 0.65 0.62 0.61 0.59 0.53 0.49 0.45 0.43 0.44 0.43 0.39 0.36 0.35 0.36 0.36 0.36 0.37 0.38 0.40 0.43 0.46 0.47 0.46 0.44 0.42 0.38 0.34 0.31 0.28 0.25 0.23 0.21 0.19 0.19 0.17 0.16 0.15 0.14 0.13 0.13 0.12 0.12 0.12 0.11 0.11 0.11 0.12 0.13 0.13 0.13 0.12 0.13 0.14 0.17 0.20 0.24 0.27 0.28 0.32
1.08 1.09 1.10 1.07 1.04 1.01 0.99 0.97 0.93 0.90 0.88 0.85 0.82 0.80 0.77 0.76 0.75 0.73 0.71 0.69 0.68 0.68 0.67 0.67 0.66 0.65 0.66 0.66 0.66 0.65 0.61 0.57 0.53 0.49 0.46 0.46 0.43 0.39 0.36 0.36 0.37 0.37 0.38 0.38 0.40 0.44 0.48 0.49 0.48 0.46 0.44 0.41 0.37 0.34 0.30 0.27 0.25 0.22 0.20 0.19 0.18 0.17 0.16 0.14 0.14 0.13 0.12 0.12 0.12 0.11 0.11 0.12 0.12 0.12 0.12 0.13 0.12 0.12 0.14 0.15 0.18 0.22 0.26 0.28 0.31
1.10 1.13 1.13 1.10 1.08 1.06 1.02 0.99 0.97 0.96 0.94 0.91 0.87 0.85 0.83 0.82 0.81 0.79 0.76 0.75 0.74 0.73 0.71 0.69 0.69 0.69 0.67 0.66 0.66 0.66 0.64 0.63 0.60 0.54 0.52 0.52 0.49 0.44 0.41 0.38 0.38 0.38 0.38 0.39 0.40 0.44 0.49 0.50 0.49 0.47 0.45 0.42 0.39 0.35 0.32 0.29 0.27 0.24 0.22 0.19 0.18 0.17 0.16 0.15 0.14 0.13 0.13 0.12 0.12 0.11 0.11 0.12 0.12 0.13 0.14 0.13 0.12 0.12 0.12 0.14 0.16 0.19 0.24 0.27 0.29
1.08 1.08 1.11 1.15 1.08 1.05 1.02 1.01 1.00 0.98 0.95 0.94 0.93 0.93 0.91 0.87 0.84 0.81 0.80 0.79 0.78 0.77 0.75 0.73 0.73 0.71 0.67 0.65 0.66 0.66 0.68 0.66 0.64 0.60 0.58 0.56 0.53 0.50 0.45 0.42 0.40 0.39 0.39 0.40 0.41 0.45 0.48 0.50 0.50 0.49 0.46 0.43 0.40 0.37 0.34 0.30 0.28 0.26 0.23 0.20 0.19 0.17 0.16 0.15 0.14 0.14 0.13 0.12 0.12 0.12 0.12 0.12 0.12 0.13 0.14 0.13 0.13 0.12 0.12 0.12 0.14 0.16 0.21 0.25 0.27
1.01 1.02 1.03 1.04 1.05 1.04 1.02 1.01 0.97 0.95 0.94 0.95 0.96 0.94 0.92 0.90 0.88 0.84 0.81 0.80 0.80 0.79 0.76 0.74 0.73 0.71 0.68 0.66 0.66 0.65 0.67 0.66 0.64 0.63 0.63 0.61 0.58 0.54 0.50 0.47 0.44 0.41 0.41 0.42 0.44 0.47 0.48 0.50 0.51 0.50 0.48 0.45 0.42 0.40 0.37 0.34 0.31 0.28 0.25 0.22 0.19 0.18 0.17 0.15 0.15 0.14 0.13 0.12 0.12 0.12 0.12 0.12 0.12 0.13 0.13 0.13 0.13 0.12 0.11 0.12 0.12 0.14 0.17 0.21 0.25
0.83 0.89 0.93 0.94 0.95 0.96 0.98 0.98 0.96 0.96 0.95 0.94 0.93 0.91 0.90 0.89 0.88 0.87 0.85 0.82 0.80 0.79 0.78 0.77 0.75 0.73 0.70 0.68 0.66 0.63 0.62 0.63 0.66 0.66 0.66 0.65 0.62 0.59 0.55 0.51 0.48 0.45 0.43 0.45 0.47 0.48 0.48 0.50 0.52 0.51 0.49 0.46 0.44 0.42 0.40 0.37 0.33 0.30 0.27 0.24 0.21 0.19 0.17 0.17 0.16 0.15 0.13 0.12 0.12 0.13 0.12 0.11 0.12 0.13 0.13 0.13 0.13 0.12 0.11 0.11 0.11 0.13 0.15 0.17 0.21
0.67 0.72 0.76 0.80 0.83 0.86 0.87 0.88 0.89 0.89 0.90 0.90 0.89 0.88 0.88 0.88 0.87 0.87 0.85 0.83 0.82 0.80 0.79 0.78 0.78 0.76 0.74 0.71 0.69 0.66 0.64 0.63 0.65 0.69 0.68 0.67 0.65 0.63 0.59 0.55 0.52 0.50 0.47 0.46 0.47 0.48 0.48 0.50 0.51 0.52 0.51 0.48 0.45 0.44 0.42 0.40 0.37 0.33 0.31 0.27 0.24 0.21 0.20 0.19 0.17 0.15 0.14 0.13 0.13 0.13 0.12 0.12 0.13 0.14 0.14 0.13 0.13 0.12 0.12 0.12 0.11 0.13 0.14 0.15 0.17
0.39 0.48 0.57 0.64 0.69 0.74 0.79 0.82 0.84 0.85 0.85 0.85 0.84 0.83 0.84 0.84 0.83 0.83 0.83 0.83 0.81 0.82 0.81 0.81 0.80 0.79 0.79 0.76 0.72 0.69 0.68 0.65 0.65 0.67 0.69 0.69 0.67 0.65 0.61 0.58 0.56 0.54 0.51 0.48 0.47 0.48 0.48 0.49 0.51 0.52 0.52 0.50 0.47 0.45 0.44 0.42 0.40 0.37 0.33 0.30 0.27 0.24 0.21 0.19 0.17 0.15 0.14 0.14 0.13 0.12 0.12 0.13 0.13 0.14 0.14 0.13 0.13 0.12 0.12 0.11 0.12 0.12 0.13 0.14 0.15
0.28 0.31 0.33 0.37 0.42 0.50 0.60 0.69 0.75 0.80 0.81 0.82 0.82 0.83 0.83 0.84 0.83 0.82 0.82 0.81 0.79 0.80 0.81 0.83 0.82 0.82 0.82 0.79 0.76 0.73 0.71 0.69 0.67 0.67 0.70 0.70 0.67 0.65 0.61 0.60 0.58 0.57 0.55 0.50 0.47 0.47 0.48 0.49 0.50 0.52 0.53 0.52 0.49 0.47 0.45 0.44 0.43 0.40 0.36 0.33 0.30 0.26 0.23 0.19 0.17 0.16 0.16 0.15 0.13 0.12 0.13 0.13 0.13 0.14 0.14 0.13 0.13 0.12 0.11 0.11 0.12 0.13 0.13 0.13 0.13
0.32 0.36 0.39 0.42 0.44 0.45 0.46 0.49 0.55 0.63 0.71 0.78 0.81 0.81 0.80 0.80 0.80 0.82 0.84 0.83 0.81 0.80 0.81 0.81 0.82 0.84 0.83 0.81 0.79 0.76 0.74 0.72 0.69 0.67 0.67 0.69 0.69 0.66 0.64 0.62 0.61 0.59 0.57 0.54 0.49 0.48 0.48 0.49 0.50 0.52 0.53 0.54 0.52 0.49 0.47 0.45 0.44 0.42 0.39 0.35 0.32 0.28 0.25 0.21 0.18 0.17 0.15 0.14 0.13 0.13 0.13 0.14 0.14 0.15 0.14 0.14 0.13 0.12 0.11 0.11 0.12 0.13 0.13 0.13 0.11
0.36 0.40 0.42 0.45 0.46 0.49 0.52 0.54 0.56 0.57 0.60 0.65 0.71 0.76 0.79 0.80 0.79 0.79 0.79 0.79 0.79 0.79 0.80 0.82 0.83 0.84 0.85 0.82 0.80 0.78 0.75 0.73 0.71 0.70 0.70 0.70 0.70 0.70 0.68 0.65 0.62 0.60 0.58 0.57 0.53 0.49 0.49 0.49 0.50 0.51 0.53 0.55 0.54 0.52 0.50 0.48 0.46 0.43 0.41 0.37 0.33 0.30 0.27 0.23 0.20 0.17 0.15 0.15 0.14 0.14 0.13 0.14 0.15 0.15 0.15 0.14 0.12 0.11 0.11 0.12 0.12 0.12 0.13 0.12 0.11
0.42 0.45 0.45 0.44 0.43 0.43 0.46 0.49 0.52 0.55 0.57 0.58 0.60 0.65 0.70 0.74 0.76 0.77 0.79 0.79 0.77 0.76 0.76 0.77 0.78 0.80 0.80 0.81 0.82 0.80 0.77 0.74 0.73 0.72 0.72 0.71 0.74 0.73 0.71 0.68 0.64 0.60 0.58 0.58 0.57 0.53 0.50 0.50 0.50 0.51 0.52 0.55 0.56 0.54 0.52 0.50 0.49 0.46 0.44 0.39 0.35 0.32 0.29 0.26 0.21 0.18 0.17 0.16 0.15 0.14 0.14 0.14 0.15 0.15 0.14 0.14 0.12 0.10 0.11 0.12 0.12 0.12 0.12 0.12 0.12
Wind_Speed
1 1 2 2 3 4 5 5 6 7 8 9 9 10 11 12 13 15 15 16 17 17 18 18 19 19 20 20 20 20 20 20 20 20 20 21 21 22 22 22 22 22 22 22 23 23 24 25 26 28 29 31 33 33 35 36 38 39 40 42 43 44 45 47 48 49 49 48 47 44 42 39 37 35 34 33 32 31 30 28 26 25 25 25 26
1 1 2 2 3 3 4 5 6 7 8 9 10 11 12 12 13 14 15 16 17 17 18 19 19 19 19 19 19 20 20 20 20 21 21 21 21 21 22 22 22 23 23 23 23 24 25 26 27 28 29 31 33 34 36 37 39 40 42 43 44 45 46 48 49 49 50 48 45 42 39 36 34 33 33 32 31 29 28 26 24 23 22 23 23
1 1 2 2 3 3 4 5 6 7 7 8 9 10 12 12 13 14 15 16 17 17 18 19 19 19 19 19 19 19 19 20 20 21 21 21 22 22 22 22 23 23 24 24 24 25 26 26 28 29 30 32 34 35 37 38 40 41 43 44 45 45 47 48 49 49 49 47 43 40 37 34 33 32 31 30 30 28 27 25 24 22 21 21 22
2 2 2 3 3 3 4 5 6 7 7 8 9 10 11 12 13 14 15 16 16 17 18 19 19 19 19 19 19 19 19 19 20 21 21 22 22 22 23 23 23 24 24 24 25 26 26 27 28 29 31 33 35 36 38 39 41 42 44 45 45 46 47 48 48 48 47 45 41 38 35 33 32 31 30 29 28 27 26 25 23 22 22 22 22
2 2 3 3 3 4 4 5 6 6 7 7 9 10 11 11 12 13 14 15 16 17 18 18 19 19 19 18 18 18 19 19 20 20 21 22 22 23 23 24 24 24 25 25 26 26 27 28 29 30 31 33 35 37 39 40 42 43 45 46 46 47 47 48 48 47 46 43 40 36 34 32 30 30 29 28 27 26 24 23 22 21 21 22 22
3 3 3 3 4 4 4 5 6 6 6 8 9 10 10 11 12 13 14 15 16 17 18 18 18 18 18 18 18 18 19 20 20 21 21 22 23 23 23 24 24 25 25 26 26 27 27 29 30 30 32 34 36 38 40 41 42 44 45 46 47 47 48 48 47 47 45 41 38 36 33 31 30 29 28 27 26 25 24 23 22 21 21 22 22
4 4 4 4 4 4 5 5 5 5 6 8 9 10 10 11 12 13 14 15 15 16 17 18 18 18 18 18 18 19 19 20 20 21 22 22 23 23 24 24 25 25 26 26 27 27 28 29 30 31 33 35 36 38 40 42 43 45 46 47 47 47 48 48 47 46 44 40 37 35 32 30 29 28 27 26 25 24 23 23 22 22 22 22 23
5 5 4 4 4 5 5 5 5 5 7 8 9 10 10 11 12 13 14 14 15 16 17 17 17 17 18 18 18 19 19 20 20 21 22 22 23 23 24 25 25 26 26 27 27 28 28 30 30 32 33 34 36 39 40 42 44 45 46 47 47 47 47 48 47 46 43 40 37 34 31 29 28 27 26 26 24 23 23 23 23 23 24 24 25
5 5 5 5 6 5 5 5 5 6 8 9 9 10 10 11 12 13 14 14 15 16 17 17 17 17 17 17 18 19 19 20 21 21 22 23 23 23 24 25 25 26 26 27 28 28 29 30 31 32 33 34 37 39 40 42 45 46 47 47 48 47 48 48 47 46 43 40 36 34 31 29 28 27 26 25 24 23 24 24 24 24 25 25 26
6 6 6 6 6 6 6 6 6 8 9 9 9 10 10 11 12 13 13 14 15 16 16 16 16 16 17 17 17 18 19 20 21 22 23 23 23 24 24 25 26 26 27 28 28 29 30 31 32 33 33 35 38 39 41 44 45 46 47 47 47 47 48 48 47 46 44 40 36 33 31 28 28 27 25 25 24 23 24 25 25 25 25 26 27
6 6 7 7 7 6 6 6 7 8 9 9 9 10 10 11 12 12 13 14 15 15 16 16 16 16 16 17 17 18 19 20 21 22 23 23 24 24 24 25 26 26 27 28 28 29 30 31 33 33 33 35 38 39 41 44 45 46 47 47 47 47 47 48 47 46 43 39 36 33 30 28 27 26 25 24 24 23 24 25 25 25 26 26 27
7 7 7 8 7 7 7 7 8 8 9 9 10 10 10 11 12 12 13 14 15 15 16 16 16 16 16 16 17 18 19 20 21 22 23 24 24 24 24 25 26 26 27 28 29 30 30 31 33 34 34 36 38 39 42 44 45 46 47 47 47 47 47 47 47 45 43 40 36 33 30 28 27 26 25 24 24 24 25 25 25 26 26 27 27
8 8 8 8 7 7 7 8 9 9 9 10 10 10 10 11 12 12 13 14 15 15 15 16 15 15 16 16 17 18 19 20 21 22 23 24 24 25 25 25 26 26 27 28 29 30 30 31 33 34 36 37 38 40 42 44 45 46 46 46 46 46 46 46 46 45 43 40 36 32 30 28 27 26 25 25 24 24 24 25 26 26 26 27 27
9 8 9 9 8 7 8 8 9 9 9 10 10 10 10 11 12 12 13 14 15 15 15 15 15 15 15 16 16 18 19 20 21 22 23 24 25 25 25 25 26 27 27 28 29 30 31 31 32 35 36 37 38 41 42 44 44 45 45 45 46 46 47 46 46 45 43 39 34 32 31 29 28 27 26 25 24 24 24 24 26 26 26 27 27
9 9 9 8 8 8 9 9 9 9 9 10 10 10 11 11 12 12 13 14 15 15 15 15 15 15 15 16 16 18 19 19 20 22 23 24 25 25 25 26 26 26 27 28 29 30 30 31 32 35 36 37 39 41 42 43 44 45 45 45 46 46 46 46 46 45 43 39 34 32 31 30 29 27 26 24 24 24 24 24 25 26 27 27 27
9 9 9 9 9 10 9 9 9 9 9 9 10 11 11 11 12 13 13 14 15 15 15 15 15 15 15 16 16 17 18 19 20 22 23 24 25 25 25 26 26 26 27 28 29 30 30 30 32 34 36 37 39 41 42 43 44 44 45 45 46 46 46 46 46 46 43 40 35 32 31 31 30 28 26 25 24 24 23 23 24 26 27 26 26
10 10 9 10 10 11 10 10 9 9 9 9 10 11 11 12 12 13 13 14 15 15 15 15 15 15 15 16 17 17 18 19 20 21 23 24 24 25 25 26 26 26 27 28 28 29 30 31 32 34 36 37 39 41 42 42 43 44 45 45 46 46 46 46 47 46 44 40 37 33 32 31 30 28 26 25 25 24 23 23 25 26 26 25 25
11 11 10 11 11 11 11 10 10 10 10 10 11 11 12 12 13 13 14 14 14 15 15 15 15 15 15 16 17 17 18 19 20 21 22 23 24 24 25 26 26 27 28 28 29 29 29 31 33 34 35 37 39 40 41 42 42 43 44 45 45 46 46 47 47 46 44 40 36 33 32 31 30 28 26 25 25 23 22 23 25 26 25 25 26
12 12 12 12 12 12 12 11 11 10 10 11 11 11 12 12 13 13 14 14 14 15 15 15 15 15 15 16 17 17 18 19 20 21 22 23 24 24 25 26 26 27 28 28 29 29 29 31 32 34 35 37 38 39 40 41 42 43 44 45 45 46 47 47 47 46 44 40 36 33 31 31 30 28 26 25 24 24 23 24 25 25 24 25 26
13 13 13 13 13 12 12 12 11 11 11 11 11 12 12 13 13 13 14 14 15 15 15 15 15 15 15 16 17 17 18 19 19 20 21 23 23 24 25 26 26 27 27 28 28 29 29 30 32 33 35 36 38 39 40 40 41 43 44 44 45 46 47 47 47 47 45 41 37 33 31 30 30 28 26 24 24 24 23 23 23 24 24 24 25
14 14 14 14 13 13 13 12 12 12 12 11 12 12 12 13 13 14 14 14 15 15 15 15 15 15 16 16 17 17 18 18 19 20 21 22 23 24 25 25 26 27 27 28 28 29 30 31 32 33 35 36 37 38 40 41 41 42 43 44 44 46 47 47 47 46 45 41 37 34 32 30 30 29 27 25 24 24 23 23 23 24 24 23 24
14 14 14 14 13 13 13 12 12 12 12 12 12 12 13 13 13 14 14 14 15 15 15 15 15 15 16 16 17 17 17 18 19 19 20 21 22 24 24 25 26 26 27 28 28 29 30 31 32 33 34 35 37 38 40 41 41 42 42 43 44 45 46 46 46 46 45 42 38 35 32 31 30 29 28 27 25 24 23 22 23 24 23 22 23
14 14 14 14 13 13 13 13 13 13 13 13 13 13 13 13 14 14 14 15 15 15 15 15 15 16 16 17 17 17 18 18 18 19 20 21 22 23 24 25 26 26 27 27 28 29 30 31 32 33 34 35 37 38 39 40 40 41 42 43 44 45 45 45 45 45 45 42 38 35 33 31 30 30 29 28 26 24 23 22 23 23 23 22 23
13 14 13 13 12 12 13 13 13 14 13 13 13 13 13 13 14 14 15 15 15 15 15 15 16 16 16 17 17 18 18 18 18 19 20 20 21 22 23 25 26 26 27 27 27 28 29 30 32 33 34 35 36 37 38 39 39 40 42 42 44 44 44 44 45 45 45 43 39 36 34 32 31 30 30 29 26 24 23 22 22 23 22 22 22
12 12 12 12 12 12 13 13 14 14 14 14 14 13 13 14 14 15 15 15 15 16 16 16 16 16 17 17 17 18 18 18 18 19 19 20 21 22 23 24 25 26 26 27 28 28 30 31 32 32 33 34 35 36 37 38 39 40 41 42 43 43 43 44 45 45 44 43 40 36 34 33 31 30 30 29 27 25 23 22 22 22 22 21 21
11 11 11 12 13 13 13 14 14 14 14 14 14 14 14 14 15 15 16 16 16 16 16 16 16 16 17 17 17 18 18 18 19 19 19 20 21 22 23 24 25 26 26 27 28 28 29 30 31 32 33 33 34 35 36 37 38 39 40 41 42 42 43 44 44 44 44 44 41 37 35 33 31 30 30 29 27 25 23 22 21 21 21 21 20
11 11 12 12 13 14 14 14 15 15 15 15 15 15 15 15 16 16 16 16 16 16 16 16 16 16 17 17 17 17 18 18 19 19 20 20 21 22 23 24 25 26 26 27 27 28 29 30 30 31 32 32 33 34 35 36 37 38 39 40 41 41 42 43 43 44 44 43 41 38 35 34 32 31 30 29 28 26 24 22 21 20 20 20 19
11 11 12 13 14 14 14 15 15 15 15 15 16 16 16 16 16 17 17 17 17 17 17 17 17 17 17 17 17 17 18 18 19 19 19 20 21 22 22 23 25 25 26 26 27 28 29 29 29 30 30 31 32 33 34 36 37 37 38 39 40 41 42 42 43 43 43 43 41 39 36 34 33 31 30 29 28 27 25 23 21 19 19 19 18
12 12 13 13 14 14 14 15 15 15 16 16 16 17 17 17 17 17 17 17 17 17 17 17 17 18 17 17 18 18 18 19 19 19 19 19 20 22 22 23 24 25 26 27 27 28 28 28 28 29 29 30 32 33 34 35 36 37 37 38 39 40 41 41 42 43 43 42 42 40 36 34 33 32 30 29 28 27 26 24 21 19 18 18 18
13 13 14 14 14 14 15 15 15 16 16 16 17 17 17 18 18 18 18 18 18 17 18 18 18 18 18 18 18 19 19 19 19 19 19 19 20 22 23 23 24 25 26 27 27 27 27 28 28 28 28 30 31 32 33 34 35 36 37 37 38 39 40 41 42 42 42 42 42 41 37 35 33 32 30 29 29 27 26 25 22 19 18 18 17
13 14 14 14 14 15 15 15 15 16 16 16 17 17 17 18 18 18 18 18 18 18 18 18 18 18 18 19 19 19 19 19 19 19 19 20 21 22 22 23 24 24 25 26 26 26 27 27 27 27 28 29 30 31 32 34 35 35 36 36 37 38 39 40 41 41 42 42 42 41 39 36 33 32 31 29 29 28 26 25 23 21 18 17 16
13 14 14 14 14 15 15 15 15 16 16 16 16 17 17 18 18 18 18 19 19 18 18 18 18 19 19 19 20 20 20 19 19 20 20 20 21 21 22 23 23 24 25 25 26 26 26 26 26 26 27 28 29 30 31 32 34 34 35 35 36 37 38 39 40 41 41 41 41 41 40 37 34 32 31 29 28 28 26 25 24 22 20 17 16
14 14 14 14 15 15 15 15 15 16 16 16 16 17 17 18 18 18 18 19 19 19 19 19 19 19 19 19 20 20 20 20 20 20 21 21 21 22 22 22 23 23 24 25 25 26 26 25 25 25 26 27 28 29 30 31 32 33 33 34 35 36 37 38 39 40 40 41 40 40 40 38 35 32 31 30 28 27 26 25 24 23 21 18 16
15 15 15 15 16 16 16 16 17 17 17 17 18 18 18 18 19 19 19 19 19 20 20 20 20 20 20 20 20 20 20 20 21 21 21 21 22 22 22 23 23 23 23 24 25 25 25 25 25 25 25 26 27 28 29 30 31 32 32 33 34 35 36 37 38 39 39 40 40 40 40 39 36 33 31 30 29 28 26 25 24 24 22 20 17
17 17 17 17 17 18 18 18 18 19 19 19 19 19 20 20 20 20 20 20 20 20 20 21 21 21 21 21 21 21 21 21 21 21 22 22 22 22 22 23 23 23 23 24 24 25 25 25 24 24 25 25 26 27 28 29 30 31 31 32 33 34 34 36 37 38 38 39 39 39 39 39 38 34 31 30 29 28 27 25 25 24 23 21 19
19 20 20 20 20 20 21 21 21 21 21 21 21 21 21 21 21 21 21 21 21 21 21 21 22 22 22 22 22 21 22 22 21 21 22 22 22 22 22 23 23 23 23 23 23 24 24 24 23 23 24 25 25 26 27 28 29 30 30 31 32 32 33 35 36 36 37 38 38 38 38 39 38 35 32 30 29 28 27 25 25 24 23 22 20
22 22 22 23 23 23 23 23 23 23 23 23 23 23 23 23 23 23 23 22 22 23 23 22 22 22 23 23 23 22 22 22 22 22 22 22 23 23 23 23 23 23 23 23 23 23 23 23 23 23 24 24 24 25 26 27 27 28 29 30 31 31 32 34 35 35 36 37 37 37 38 38 38 36 34 31 29 28 27 26 25 24 23 21 21
25 25 25 25 25 25 26 26 26 25 25 25 25 25 25 25 25 25 25 24 24 24 24 24 23 23 24 24 24 23 23 22 22 22 22 23 23 24 24 23 23 23 23 23 23 23 23 23 22 23 23 23 23 24 25 25 26 27 28 29 30 30 31 32 33 34 35 35 36 36 37 37 37 36 35 32 30 28 27 26 25 24 22 21 21
27 27 28 28 28 28 28 28 28 28 27 27 27 27 27 27 27 27 26 26 26 26 26 25 25 25 25 25 24 24 23 23 23 23 23 23 24 24 24 24 23 23 23 23 23 23 23 23 22 22 22 23 23 23 23 24 25 26 27 28 28 29 30 31 32 33 33 34 35 35 36 36 36 36 35 34 31 29 27 26 25 24 22 21 20
28 29 29 30 30 30 30 30 30 29 29 29 29 29 29 29 29 29 28 28 28 27 27 27 27 27 26 25 25 25 25 25 24 24 24 24 24 24 24 24 24 24 23 23 23 23 23 23 22 22 22 22 22 22 22 23 24 25 25 26 27 28 29 30 31 32 32 33 34 34 35 35 35 35 35 34 32 29 27 26 25 24 22 21 20
30 30 30 31 31 32 32 32 32 32 32 32 31 31 31 31 31 31 30 30 30 30 30 30 30 29 29 28 27 27 27 27 26 25 25 25 24 24 24 24 24 24 23 23 23 23 22 22 22 22 21 21 21 21 21 22 23 23 24 25 26 27 28 28 29 30 31 32 32 33 33 34 34 34 34 34 33 31 28 26 25 24 22 21 20
31 32 32 32 33 33 33 34 34 35 35 35 34 34 33 33 33 33 33 33 33 33 32 32 32 32 31 30 29 28 29 29 28 27 26 25 25 25 25 25 25 24 24 23 23 23 22 22 22 21 21 20 21 20 20 20 21 22 23 24 24 25 26 27 28 29 30 30 31 32 32 33 33 33 33 33 34 32 30 27 25 24 22 21 20
32 32 33 33 34 34 34 34 35 35 36 36 37 37 36 36 36 35 35 35 35 34 34 34 34 33 33 32 31 31 30 30 30 29 28 27 26 26 26 25 25 25 24 24 23 22 22 22 22 21 21 20 20 20 19 20 20 21 21 22 23 24 25 26 26 27 28 29 30 30 31 31 32 32 32 32 33 33 31 28 26 24 23 22 21
33 33 33 34 34 35 36 36 35 35 36 36 37 37 38 38 38 38 38 37 37 37 36 36 35 34 33 33 32 32 32 31 31 31 30 29 27 27 27 26 26 25 25 24 23 22 22 22 22 21 21 20 19 19 19 19 19 20 20 21 22 22 23 24 25 26 27 28 28 29 30 30 31 31 32 32 32 32 32 30 27 25 24 22 21
35 35 35 35 35 36 37 37 37 38 38 38 38 37 37 38 39 40 40 40 39 38 38 37 36 35 34 33 33 33 33 32 32 32 32 31 29 28 27 27 26 26 25 24 23 22 22 22 21 21 20 20 19 19 18 18 18 18 19 20 20 21 22 23 23 24 25 26 27 27 28 29 29 30 31 31 31 31 31 31 29 26 24 23 22
36 36 36 37 37 37 38 38 38 39 39 39 38 38 38 38 39 39 40 40 40 39 39 39 38 37 35 34 34 34 34 33 33 32 33 32 31 30 28 27 27 26 25 24 24 23 22 22 21 21 20 20 19 19 18 18 17 17 18 18 19 20 20 21 22 23 24 24 25 26 26 27 28 28 29 30 30 30 30 31 30 27 25 23 22
37 37 37 37 38 38 39 39 39 39 39 39 39 39 39 39 40 40 40 40 40 40 40 40 39 38 37 37 36 35 34 34 34 34 33 33 33 31 30 28 27 27 26 25 24 24 23 22 21 21 20 20 19 19 18 18 17 17 17 17 18 18 18 19 20 22 22 23 24 24 25 26 27 27 28 29 29 29 29 29 29 29 26 24 22
37 37 37 38 38 39 39 40 40 40 40 40 40 40 40 40 40 40 40 40 40 40 40 40 40 40 40 39 37 36 36 35 35 35 34 34 34 33 31 29 28 27 27 26 25 25 24 23 22 21 20 20 19 19 18 17 17 16 16 16 16 16 17 18 19 20 21 22 22 23 23 24 25 26 26 27 28 29 29 28 28 29 28 25 23
36 37 37 38 38 39 39 39 40 40 40 41 41 41 41 41 40 40 40 40 41 41 41 41 41 41 41 39 38 38 37 37 36 36 35 35 34 34 32 31 30 29 28 27 26 25 25 24 23 21 21 20 20 19 18 18 17 16 16 15 15 15 15 16 17 18 19 20 21 21 22 22 23 24 25 26 27 27 28 27 27 28 28 27 25
36 36 37 37 38 38 39 39 40 40 40 40 41 41 40 40 40 40 41 41 41 41 41 41 41 41 40 40 39 39 39 38 38 37 36 36 35 35 35 33 32 31 29 28 27 26 25 25 24 22 21 21 20 19 19 18 17 16 15 14 14 14 14 15 16 17 17 18 19 20 20 21 22 22 23 24 25 26 26 26 26 26 27 27 26
35 36 36 36 37 37 37 38 38 38 39 39 40 40 41 41 41 41 41 41 41 41 41 40 40 40 40 39 40 40 40 40 39 38 38 37 36 36 36 36 34 33 31 30 28 27 26 26 25 24 22 21 20 20 19 18 18 17 15 14 13 13 13 14 15 15 16 16 17 18 19 19 20 21 22 22 23 24 25 25 25 25 26 26 26
Wind_Direction
263 328 341 353 1 5 7 6 6 5 4 4 4 4 4 5 5 3 2 3 3 3 2 2 1 0 1 2 2 2 2 2 1 0 359 358 357 357 356 355 353 352 350 349 348 346 346 346 346 345 344 343 342 341 340 339 338 338 337 335 334 333 331 330 329 328 328 328 327 326 326 325 326 326 326 326 326 325 323 319 312 305 298 295 293
254 300 327 346 359 2 2 1 1 1 0 1 2 3 3 2 2 1 1 2 1 1 1 1 360 360 0 1 1 1 2 2 2 1 360 359 357 356 355 355 354 352 351 350 348 347 347 347 346 345 343 343 342 341 341 340 340 339 338 337 335 334 333 332 331 330 330 330 329 328 328 328 328 328 328 328 329 329 328 325 321 315 308 302 298
255 287 313 334 351 354 352 352 352 354 357 358 358 359 360 359 359 359 360 1 1 0 1 360 359 359 0 1 0 0 1 1 1 1 0 359 358 357 356 355 354 353 352 350 348 347 347 346 345 344 343 343 343 342 342 341 341 340 339 338 336 335 335 334 333 332 332 332 331 330 329 329 329 329 330 330 330 329 328 327 324 320 315 309 304
254 273 293 312 333 339 341 344 343 347 354 355 353 355 357 357 357 358 359 360 360 360 0 360 359 360 0 0 359 359 359 360 0 0 360 359 359 357 356 356 354 353 352 350 348 348 347 346 345 344 343 343 343 343 343 343 342 342 341 339 338 337 336 336 335 334 333 333 332 330 330 330 329 330 330 330 330 329 328 327 325 322 319 314 310
254 267 281 294 311 321 328 337 340 342 347 348 348 351 353 354 355 356 357 358 358 358 359 359 359 0 0 0 359 358 358 359 359 359 358 358 358 357 357 356 355 353 352 350 349 348 347 346 345 344 343 343 343 344 344 343 343 343 342 340 339 339 338 338 337 336 335 334 332 331 331 330 330 330 331 331 331 330 329 328 327 325 322 319 315
255 264 276 287 300 311 320 329 335 338 338 340 344 346 349 351 352 353 354 356 356 356 357 358 358 360 0 360 359 359 359 358 358 358 357 357 357 357 357 356 355 354 352 351 349 349 348 346 345 344 343 343 344 344 344 344 344 344 342 341 341 340 340 340 339 338 337 335 334 333 332 331 330 331 331 332 332 332 332 331 329 328 326 323 320
259 266 275 288 297 304 315 321 326 331 333 336 340 342 344 347 348 350 352 353 353 355 356 356 356 358 359 359 359 359 359 358 357 357 356 356 356 356 356 356 355 354 352 351 350 349 348 347 346 345 344 344 345 344 344 345 345 344 343 342 342 341 342 342 341 340 339 337 336 334 333 332 331 331 332 334 334 333 332 331 330 329 328 326 324
262 267 274 286 292 299 312 319 319 323 328 331 335 338 340 342 346 348 349 349 351 352 353 353 354 356 357 358 359 359 359 358 357 356 355 355 356 356 356 355 355 354 353 352 351 350 348 347 347 346 345 345 345 345 345 346 345 345 344 343 343 343 343 344 342 342 341 339 337 335 334 332 332 332 334 335 335 334 332 330 328 328 328 327 326
260 266 272 279 285 295 310 314 311 316 321 325 330 334 336 339 343 345 345 347 348 350 351 351 352 354 355 357 358 357 358 358 358 357 356 355 355 355 355 355 355 354 353 352 352 350 349 348 348 347 347 346 346 346 347 347 346 346 345 344 344 344 345 344 343 343 342 340 338 337 335 334 334 334 335 336 335 333 332 330 327 327 326 326 326
257 266 273 276 282 293 301 302 304 312 317 320 325 329 332 336 340 341 342 344 346 347 348 349 350 351 353 355 356 355 356 357 357 357 356 356 355 355 354 354 354 354 353 353 352 351 350 350 349 349 348 347 347 348 348 348 347 347 346 345 345 345 345 345 344 344 344 342 340 339 338 336 336 336 334 334 333 332 332 331 329 327 326 325 326
257 265 275 280 284 288 290 292 300 309 315 318 322 326 329 332 336 338 340 341 343 344 344 346 347 349 351 353 353 353 355 356 356 356 356 355 355 354 354 354 353 353 353 353 352 351 351 351 351 350 349 348 348 349 349 349 348 348 347 346 346 347 346 346 346 346 345 344 342 341 339 337 336 336 333 332 332 331 332 333 331 330 329 328 328
259 265 275 281 284 283 284 288 296 305 312 316 319 322 326 330 333 335 337 339 340 340 341 343 345 346 348 350 350 351 353 353 354 354 354 355 355 354 353 353 353 353 353 352 352 351 351 351 351 351 349 349 350 350 350 350 349 349 348 348 348 348 348 347 347 347 347 346 344 343 341 338 336 335 332 331 331 330 331 333 333 332 331 330 330
262 267 273 279 281 280 282 286 292 300 306 310 315 320 323 327 330 332 335 336 337 337 338 340 342 343 345 348 348 349 350 352 352 353 353 353 353 353 353 352 352 353 353 351 351 351 351 350 351 351 350 350 351 351 351 351 351 350 350 350 350 350 350 349 349 349 349 347 346 345 344 340 336 334 333 331 329 330 331 333 335 335 333 332 331
262 266 271 274 277 280 283 285 290 295 299 304 312 317 320 324 327 330 332 333 334 335 335 337 339 340 343 345 345 346 348 350 350 351 352 352 352 353 352 351 352 352 351 350 350 350 350 350 350 351 351 351 351 351 351 352 352 351 351 351 351 352 352 351 351 351 351 350 349 347 345 342 338 336 334 332 331 331 332 334 336 337 336 335 334
261 265 267 267 271 278 282 286 289 292 295 301 308 313 316 321 324 326 329 330 332 332 333 335 336 337 340 342 342 343 346 347 348 349 350 350 350 351 351 350 351 351 349 349 349 350 350 349 349 350 351 351 352 352 353 353 353 353 353 352 353 354 353 353 353 353 353 353 351 348 346 345 342 339 337 336 335 334 334 335 337 339 339 338 338
260 263 262 263 269 276 280 284 287 289 294 299 304 309 314 317 320 323 326 328 329 330 331 333 334 335 337 338 339 341 343 345 346 347 349 349 349 350 350 350 350 349 348 349 349 350 349 350 350 350 351 352 352 353 354 354 354 354 354 354 354 355 355 354 354 354 354 353 351 349 348 346 344 342 340 339 339 339 339 339 341 343 342 341 341
261 260 259 262 270 275 277 281 284 288 292 295 300 307 311 313 317 320 322 324 326 328 329 331 331 332 333 335 336 338 341 343 344 346 347 348 349 349 350 350 350 349 349 350 350 350 350 350 350 351 352 352 353 354 354 355 356 355 355 355 355 356 356 356 355 355 354 354 352 350 349 347 346 346 345 344 344 345 344 343 345 346 345 345 345
260 258 258 263 269 273 275 278 281 286 289 292 298 305 308 311 314 317 319 322 324 325 327 328 329 329 331 332 334 336 339 340 342 345 346 347 348 349 349 350 349 350 350 351 351 352 352 351 351 352 353 353 353 354 355 356 357 357 356 356 356 357 357 357 357 357 356 355 353 351 350 350 351 351 351 350 350 350 348 347 348 349 348 348 348
260 257 258 264 268 270 272 275 279 283 286 291 297 302 305 309 312 314 317 319 321 323 325 326 326 327 329 330 332 334 336 338 340 343 345 346 347 348 349 349 350 350 350 351 352 352 352 352 352 353 353 353 354 355 356 357 357 358 357 357 357 357 358 358 358 358 358 357 355 354 354 354 355 354 354 354 353 352 351 350 351 353 352 352 353
260 257 260 267 269 268 269 271 276 281 285 291 296 300 304 307 309 312 314 317 319 320 322 323 324 325 327 328 329 331 334 336 338 341 343 345 346 347 348 349 349 349 350 351 352 352 352 352 352 353 354 354 355 355 356 357 358 358 358 358 358 358 358 359 359 359 358 358 357 357 356 357 357 356 356 356 355 355 353 352 355 356 354 353 356
260 259 264 267 266 265 266 268 272 278 284 290 294 299 303 304 307 310 312 314 316 318 320 321 322 323 325 326 327 329 332 334 336 339 341 343 345 346 347 348 349 349 349 350 351 351 352 352 352 353 354 354 355 356 357 358 359 358 358 359 358 358 359 359 359 359 359 359 359 358 358 358 358 358 357 356 356 356 355 355 357 357 355 354 357
261 261 263 263 261 261 263 265 270 277 282 288 293 298 301 302 305 307 309 311 313 315 317 319 320 321 323 324 326 327 329 331 333 336 339 341 343 344 346 347 348 348 348 349 350 351 351 352 352 353 353 354 355 356 357 358 358 359 359 359 359 359 359 359 360 0 1 0 0 360 360 359 359 359 358 357 356 356 357 358 358 358 357 358 359
259 260 260 259 258 258 260 264 269 276 280 285 291 296 298 301 303 305 307 309 311 313 315 316 317 319 320 322 323 325 327 329 331 334 337 339 341 342 344 346 347 347 348 348 349 350 351 352 351 352 352 354 355 356 357 357 358 359 359 359 359 359 360 0 1 2 2 2 1 1 1 0 360 360 359 357 356 356 358 359 360 360 0 1 2
258 257 257 256 255 256 260 264 269 275 279 284 288 292 295 298 301 303 304 307 309 310 312 313 314 316 318 320 321 322 324 326 329 332 334 337 338 340 342 344 344 346 347 347 347 349 350 351 350 350 352 354 355 355 356 357 358 358 359 359 360 0 1 1 2 3 3 3 2 2 2 1 0 0 -0 359 358 358 359 359 360 1 2 3 4
255 253 252 252 253 257 261 265 270 274 278 282 286 289 292 295 298 301 302 304 306 308 309 310 311 313 316 318 319 320 322 324 327 329 331 334 336 338 340 342 343 344 345 346 347 348 349 349 349 349 351 353 354 355 356 357 357 358 359 360 1 2 2 2 3 4 4 4 3 3 2 1 1 1 1 1 1 1 1 1 2 3 3 5 7
250 249 250 252 256 260 263 267 271 274 277 281 284 287 289 293 296 298 300 301 303 305 306 307 309 311 313 316 318 318 319 321 324 326 328 331 334 336 338 340 341 342 343 345 345 346 346 347 348 350 352 353 353 355 356 356 358 359 360 1 2 3 2 3 4 5 5 4 4 3 3 2 2 2 2 2 3 3 1 2 4 5 5 8 10
250 251 253 257 260 263 266 269 272 274 277 280 283 285 287 291 294 296 297 298 299 302 303 304 306 309 311 314 316 317 317 318 321 324 326 329 332 335 337 339 340 342 343 344 344 345 346 347 349 351 351 351 352 354 355 356 358 360 0 2 3 3 3 4 4 5 6 5 5 4 4 3 3 4 4 4 5 5 3 3 5 7 7 9 12
253 255 258 261 264 266 269 271 273 276 278 280 282 283 285 288 291 293 295 295 297 299 301 302 303 306 309 311 313 314 315 316 318 321 325 328 331 334 336 338 340 342 343 343 343 344 346 347 349 351 351 351 353 355 356 357 359 0 1 2 3 3 4 4 5 6 7 6 6 5 5 4 5 5 5 5 5 5 5 5 7 8 9 11 13
257 259 262 264 266 269 271 273 275 278 279 280 281 284 286 288 290 291 293 294 295 297 299 300 301 304 306 309 310 311 312 314 316 319 323 326 329 332 334 336 338 340 341 342 342 343 345 347 349 351 351 352 353 355 356 357 359 0 2 2 3 4 4 4 5 7 7 7 7 6 6 5 6 6 6 5 5 5 7 7 8 9 11 13 13
261 263 264 267 268 270 273 275 276 278 279 280 282 285 287 290 291 292 292 293 295 297 298 299 301 303 304 307 309 310 311 313 316 318 320 322 325 329 332 334 336 338 340 341 341 343 344 346 348 350 351 352 353 354 356 357 358 0 2 2 3 4 4 5 5 6 7 8 8 7 7 7 7 6 6 6 6 6 8 9 9 10 12 13 13
263 265 266 268 269 271 274 275 276 278 280 281 283 285 287 289 292 294 294 293 294 295 296 298 300 302 303 305 308 310 311 313 315 316 317 319 321 325 329 331 334 337 339 340 340 342 343 344 346 349 350 351 352 353 355 356 358 360 1 2 3 4 5 5 5 6 8 9 8 8 8 8 8 7 7 7 7 8 9 10 10 10 11 12 13
267 268 269 270 270 271 274 276 276 278 280 281 283 286 287 289 291 294 295 295 294 294 294 295 297 299 300 302 304 307 309 311 313 314 315 317 319 322 325 328 331 334 337 339 339 340 341 343 345 347 348 350 351 352 354 355 357 359 0 1 2 4 5 5 5 7 8 9 9 8 9 9 9 8 8 8 8 8 10 11 10 10 11 11 12
269 270 272 273 271 272 274 276 276 277 279 281 283 285 288 289 291 293 295 296 297 296 295 294 295 296 298 299 301 303 305 307 309 311 313 315 317 319 322 324 327 330 334 336 337 338 339 341 342 344 346 348 350 352 353 355 356 358 360 0 1 3 5 5 5 7 9 9 9 9 9 10 10 9 9 10 10 9 10 11 10 10 10 11 11
271 272 273 274 274 273 275 277 277 278 279 281 282 284 286 289 291 292 293 294 295 296 295 295 295 296 297 298 299 300 302 303 306 308 310 313 315 316 318 321 323 326 329 333 335 336 337 339 340 342 344 347 349 350 352 354 355 357 358 360 1 3 4 5 6 7 9 9 10 10 10 11 11 10 10 11 11 10 10 11 11 10 10 10 10
272 272 272 273 275 276 276 277 278 279 279 280 281 282 284 286 287 290 291 291 292 294 294 295 294 295 297 299 299 299 300 301 303 305 307 310 312 314 316 318 320 322 325 329 332 334 335 337 338 339 342 345 347 349 351 352 354 355 357 359 1 2 4 5 6 7 8 9 10 10 11 11 12 11 12 12 12 11 10 10 11 11 11 11 11
272 273 272 272 274 276 276 277 279 279 280 280 281 281 283 283 284 286 288 289 290 292 293 294 294 294 295 296 297 298 298 299 301 302 304 306 309 311 313 314 316 319 322 325 329 331 333 334 335 337 340 343 345 348 349 351 353 354 356 358 0 2 3 5 6 7 8 9 10 11 11 12 12 12 13 13 12 11 10 10 10 12 13 13 13
271 272 272 272 273 275 277 277 278 279 279 280 281 281 282 283 283 284 286 287 289 290 291 293 294 293 293 293 294 295 297 298 299 300 301 303 305 307 309 311 313 316 318 322 326 328 330 331 332 334 337 340 343 346 348 349 352 353 355 357 359 1 2 4 6 7 8 9 10 11 12 12 12 13 13 13 13 12 11 10 10 11 13 15 15
270 271 271 271 271 273 275 276 277 277 278 279 280 280 281 282 282 283 284 285 287 288 289 290 291 292 292 292 293 294 296 297 298 299 299 300 302 304 307 309 310 312 314 318 322 326 328 329 330 331 334 337 340 344 346 348 350 352 353 356 359 0 2 4 5 7 9 10 10 11 12 13 12 13 14 14 13 12 11 10 10 11 13 15 16
271 271 271 271 271 271 273 274 275 275 275 276 277 278 278 279 279 280 281 282 283 284 285 287 288 289 290 290 290 292 293 294 295 296 298 299 300 302 304 306 307 308 310 313 317 321 324 326 327 329 331 334 337 341 344 346 348 350 352 354 357 359 1 3 5 7 8 10 10 11 12 13 12 13 15 15 14 13 12 11 11 12 13 14 15
274 273 272 272 271 272 273 273 274 274 274 274 275 275 275 276 277 277 278 279 280 281 283 284 285 287 288 287 287 287 289 290 292 294 296 298 299 299 300 302 304 305 307 310 313 317 321 324 325 326 328 331 334 338 341 344 346 348 351 353 355 358 0 2 4 6 8 9 10 11 12 13 13 14 15 15 15 15 13 12 11 12 14 14 14
277 276 275 274 273 273 273 273 274 274 274 274 274 274 274 275 275 276 276 277 278 279 281 281 283 284 284 284 283 283 286 288 290 292 294 296 297 298 298 299 301 302 305 307 309 312 316 321 323 324 325 328 331 335 338 341 344 346 348 351 354 357 360 1 3 5 7 8 10 11 12 13 13 14 15 16 16 16 15 14 13 13 14 15 15
281 279 278 277 276 275 274 274 274 274 274 274 274 273 273 274 275 275 275 276 277 278 279 280 281 282 282 280 279 279 283 286 287 289 291 292 294 296 296 297 298 299 301 304 306 308 312 316 320 322 323 325 328 331 335 338 341 343 346 349 352 355 358 0 2 4 6 8 10 11 12 13 14 14 15 16 16 16 16 15 15 15 15 16 16
283 283 281 279 278 278 278 277 277 276 275 274 274 273 273 273 274 274 275 276 276 277 278 279 280 280 279 278 277 277 280 282 284 285 287 289 291 293 294 296 297 297 299 301 303 304 307 311 316 319 320 321 324 327 331 335 338 341 344 347 349 353 356 359 1 3 5 7 9 11 12 13 14 15 16 16 16 17 17 17 16 16 17 17 17
282 282 282 281 281 280 279 279 278 278 278 277 276 275 273 273 273 274 274 275 276 276 277 278 278 279 278 278 276 276 277 279 280 282 283 285 287 289 291 293 295 295 296 298 299 300 303 306 311 315 317 318 319 322 326 330 334 338 341 344 347 350 354 357 360 2 4 6 8 10 12 13 14 15 16 17 17 18 18 18 17 17 18 18 18
282 282 282 282 282 282 281 280 279 279 278 278 277 276 275 275 275 274 274 275 275 275 275 276 277 277 277 276 275 275 276 276 276 279 280 281 283 285 288 290 292 293 294 295 296 297 299 302 306 311 314 315 315 317 321 325 329 333 337 340 344 348 352 355 358 0 2 5 7 9 11 13 14 15 16 17 17 18 19 19 18 18 18 18 18
283 282 282 282 282 282 282 281 281 280 279 277 276 275 275 276 277 276 275 275 275 274 274 274 274 274 275 275 274 274 275 275 275 276 278 278 279 281 283 286 288 290 291 292 292 293 295 298 301 306 310 311 311 312 315 319 324 328 332 336 340 344 349 353 356 358 0 3 6 8 11 13 14 15 16 17 18 19 20 20 19 19 19 17 18
283 281 281 281 281 281 281 281 281 281 280 279 277 275 274 275 276 277 276 276 275 275 274 274 273 272 273 273 273 273 274 275 275 274 275 275 276 277 279 281 283 286 287 288 289 290 292 293 296 300 304 307 307 308 309 313 318 323 327 331 335 340 345 350 354 356 358 1 4 7 10 12 14 15 16 17 18 19 20 21 20 20 20 18 18
283 282 281 281 281 281 281 281 281 281 281 281 279 277 276 275 276 276 277 276 276 275 275 275 274 272 271 272 272 272 273 273 274 274 273 273 273 274 274 276 278 281 284 285 286 287 288 289 291 295 298 301 303 304 304 307 312 317 322 326 331 336 341 346 350 354 357 360 2 4 8 11 13 14 15 17 18 19 21 21 21 21 22 20 19
284 283 283 282 282 282 282 282 281 281 281 281 281 280 278 277 276 277 278 277 276 276 276 275 275 274 272 270 270 271 272 272 273 273 272 271 271 271 270 271 273 277 279 281 282 283 284 285 286 289 292 296 298 299 299 301 304 309 315 321 326 330 336 341 346 350 354 357 359 1 5 9 12 13 15 17 18 19 21 22 21 21 22 22 21
285 285 284 284 284 284 283 283 282 281 281 281 282 282 281 279 278 278 279 278 277 276 275 275 274 273 272 270 269 270 271 271 271 272 271 270 269 268 266 266 269 272 274 276 278 279 280 281 282 284 286 290 293 295 295 296 298 301 307 313 318 323 329 335 340 345 350 353 357 359 2 7 11 12 14 16 18 19 21 22 21 22 23 23 23
286 286 286 286 287 287 286 285 285 284 283 282 282 282 282 281 280 280 279 279 277 276 275 274 273 272 271 269 269 270 271 271 270 271 270 269 269 268 265 264 265 267 269 271 274 276 276 277 278 280 281 284 288 290 291 291 292 294 298 303 308 314 321 329 335 339 345 350 354 356 359 4 8 11 13 15 17 19 20 21 21 22 24 25 24